Погода в Разнежье

Россия / Нижегородская область     56°11′02″N   45°40′52″E
темп.,
°C
ветер,
м/с
пор.,
м/с
влажн.,
%
обл.,
%
осадки,
мм/ч
давл.,
гПа
погр.,
м
16 мая, вс
вс1600:00+17ююз3128797 0.1 1013293
03:00+16ю1194100 0.1 101412
06:00+18ю2385100 0.2 1014139
09:00+22ююз3563100 0.2 1014635
12:00+25юз46521 0.0 10141515
15:00+25юз57465 0.0 10141651
18:00+23юз25621 0.3 1014386
21:00+17юз228529 1.0 101520
17 мая, пн
пн1700:00+15зюз11885 0.1 101611
03:00+14зюз119013 0.1 101710
06:00+17зюз017990 0.0 101882
09:00+23ююв01545 0.0 1018599
12:00+27ююз124173 0.0 10181275
15:00+27ююз234143 0.0 10171435
18:00+26ю115836 0.0 101777
21:00+19в2277100 0.2 101712
18 мая, вт
вт1800:00+18вюв228392 0.0 101739
03:00+16вюв2288100 0.0 101730
06:00+19вюв2678100 0.0 1017173
09:00+25вюв354998 0.0 1017547
12:00+28юв463997 0.0 10171305
15:00+29юв4628100 0.0 10162710
18:00+25вюв4105281 0.0 1016420
21:00+20вюв3117082 0.0 1016219
19 мая, ср
ср1900:00+17вюв3127081 0.0 1016239
03:00+16вюв3117851 0.0 1016225
06:00+19вюв311706 0.0 1016327
09:00+25юв59498 0.0 1015630
12:00+28юв69415 0.0 10151250
15:00+28вюв69465 0.0 10141665
18:00+24вюв611585 0.0 1013916
21:00+20вюв516645 0.0 1013587
20 мая, чт
чт2000:00+16вюв3118415 0.4 1012271
03:00+15юв26935 0.5 1011137
06:00+17ююв410833 0.0 1012566
09:00+18ююв510675 0.0 10121057
12:00+17ююв51078100 1.3 10111048
15:00+20ю7115712 2.4 10111980
18:00+16ююз597270 0.9 10121180
21:00+13ююз512815 1.0 1014750